EW3958 Weather Reports


Display with metric or nautical units.
time (UTC)temp
F
wind
direction
speed
MPH
gust
MPH
rain 1hr
in
rain 24hr
in
rain mn
in
humidity
%
barometer
mb
20260507083503 32 0 0.0 0.0 0.00 0.00 0.00 75 1009.8
20260507083005 32 270 0.0 1.0 0.00 0.00 0.00 72 1009.9
20260507082005 32 270 0.0 1.0 0.00 0.00 0.00 72 1009.8
20260507081005 32 0 0.0 0.0 0.00 0.00 0.00 72 1010.0
20260507080503 33 272 1.0 2.0 0.00 0.00 0.00 72 1010.0
20260507075503 32 319 1.0 4.0 0.00 0.00 0.00 75 1010.1
20260507075005 32 334 1.0 5.0 0.00 0.00 0.00 73 1010.2
20260507072504 34 75 0.0 2.0 0.00 0.00 0.00 70 1010.3
20260507072006 33 75 0.0 1.0 0.00 0.00 0.00 71 1010.4
20260507071504 33 74 0.0 1.0 0.00 0.00 0.00 70 1010.5
20260507071005 34 75 0.0 2.0 0.00 0.00 0.00 71 1010.4
20260507070503 33 74 1.0 2.0 0.00 0.00 0.00 71 1010.5
20260507065503 32 75 0.0 2.0 0.00 0.00 0.00 75 1010.7
20260507065005 35 75 0.0 2.0 0.00 0.00 0.00 67 1010.7
20260507064504 35 74 0.0 2.0 0.00 0.00 0.00 69 1010.8
20260507064005 35 75 0.0 2.0 0.00 0.00 0.00 67 1010.8
20260507063503 35 75 0.0 2.0 0.00 0.00 0.00 69 1010.8
20260507063005 35 74 0.0 1.0 0.00 0.00 0.00 69 1010.9
20260507061504 35 0 0.0 0.0 0.00 0.00 0.00 69 1011.2
20260507061005 35 0 0.0 0.0 0.00 0.00 0.00 67 1011.3
20260507060504 35 0 0.0 0.0 0.00 0.00 0.00 71 1011.2
20260507055504 35 0 0.0 0.0 0.00 0.00 0.00 66 1011.4
20260507055005 35 0 0.0 0.0 0.00 0.00 0.00 70 1011.5
20260507054504 36 0 0.0 0.0 0.00 0.00 0.00 69 1011.5
20260507054005 35 0 0.0 0.0 0.00 0.00 0.00 71 1011.6
20260507053504 35 0 0.0 0.0 0.00 0.00 0.00 72 1011.8
20260507053005 35 0 0.0 0.0 0.00 0.00 0.00 73 1011.8
20260507052504 36 74 0.0 1.0 0.00 0.00 0.00 73 1012.0
20260507052004 36 74 0.0 1.0 0.00 0.00 0.00 73 1012.1
20260507051504 36 74 0.0 1.0 0.00 0.00 0.00 73 1012.0
20260507050504 36 74 0.0 1.0 0.00 0.00 0.00 72 1012.1
20260507050006 36 74 0.0 1.0 0.00 0.00 0.00 70 1012.2
20260507045504 36 74 0.0 1.0 0.00 0.00 0.00 71 1012.2
20260507045005 38 74 0.0 1.0 0.00 0.00 0.00 63 1012.3
20260507044503 37 0 0.0 0.0 0.00 0.00 0.00 65 1012.3
20260507044005 37 0 0.0 0.0 0.00 0.00 0.00 66 1012.4
20260507042004 37 75 0.0 1.0 0.00 0.00 0.00 64 1012.6
20260507041504 38 74 0.0 1.0 0.00 0.00 0.00 58 1012.7
20260507040503 40 74 0.0 1.0 0.00 0.00 0.00 56 1012.9
20260507040005 40 74 0.0 1.0 0.00 0.00 0.00 54 1012.9
20260507035503 40 74 0.0 1.0 0.00 0.00 0.00 55 1013.0
20260507035005 40 0 0.0 0.0 0.00 0.00 0.00 54 1013.0
20260507034503 40 0 0.0 0.0 0.00 0.00 0.00 54 1013.0
20260507034005 40 0 0.0 0.0 0.00 0.00 0.00 55 1013.1
20260507033504 40 0 0.0 0.0 0.00 0.00 0.00 53 1013.1
20260507033005 40 0 0.0 0.0 0.00 0.00 0.00 54 1013.1
20260507032503 40 0 0.0 0.0 0.00 0.00 0.00 52 1013.2
20260507032005 40 0 0.0 0.0 0.00 0.00 0.00 54 1013.2
20260507031503 40 0 0.0 0.0 0.00 0.00 0.00 55 1013.3
20260507031005 40 0 0.0 0.0 0.00 0.00 0.00 54 1013.3
20260507030503 41 74 1.0 2.0 0.00 0.00 0.00 52 1013.2
20260507030005 43 53 1.0 2.0 0.00 0.00 0.00 51 1013.3
20260507025504 42 29 1.0 2.0 0.00 0.00 0.00 51 1013.2
20260507025004 43 344 0.0 2.0 0.00 0.00 0.00 48 1013.3
20260507024504 43 0 0.0 0.0 0.00 0.00 0.00 49 1013.3
20260507023503 43 0 0.0 0.0 0.00 0.00 0.00 45 1013.3
20260507023005 44 0 0.0 0.0 0.00 0.00 0.00 44 1013.2
20260507022504 44 0 0.0 0.0 0.00 0.00 0.00 43 1013.4
20260507022004 45 0 0.0 0.0 0.00 0.00 0.00 42 1013.4
20260507021005 46 0 0.0 0.0 0.00 0.00 0.00 43 1013.5
20260507020005 47 342 0.0 2.0 0.00 0.00 0.00 40 1013.5
20260507015504 48 338 1.0 4.0 0.00 0.00 0.00 37 1013.6
20260507015005 48 334 1.0 4.0 0.00 0.00 0.00 35 1013.6
20260507014503 49 327 1.0 4.0 0.00 0.00 0.00 34 1013.7
20260507014005 49 314 3.0 6.0 0.00 0.00 0.00 34 1013.7
20260507013503 50 301 4.0 6.0 0.00 0.00 0.00 32 1013.7
20260507013005 51 298 4.0 7.0 0.00 0.00 0.00 30 1013.8
20260507012503 52 301 4.0 7.0 0.00 0.00 0.00 29 1013.8
20260507011504 53 284 5.0 8.0 0.00 0.00 0.00 28 1013.8
20260507011005 54 283 7.0 12.0 0.00 0.00 0.00 27 1013.8
20260507010503 54 272 8.0 12.0 0.00 0.00 0.00 25 1013.9
20260507005503 54 263 8.0 12.0 0.00 0.00 0.00 24 1014.0
20260507004504 55 273 8.0 14.0 0.00 0.00 0.00 24 1014.1
20260507004005 55 269 5.0 11.0 0.00 0.00 0.00 25 1014.1
20260507003503 55 269 7.0 10.0 0.00 0.00 0.00 25 1014.2
20260507001503 55 276 12.0 17.0 0.00 0.00 0.00 24 1014.3
20260507001005 55 273 12.0 18.0 0.00 0.00 0.00 24 1014.4
20260507000504 55 274 14.0 18.0 0.00 0.00 0.00 24 1014.5
20260507000005 55 274 12.0 18.0 0.00 0.00 0.00 23 1014.4
20260506235503 56 266 9.0 15.0 0.00 0.00 0.00 23 1014.5
20260506235005 57 265 8.0 13.0 0.00 0.00 0.00 27 1014.5
20260506234504 56 274 8.0 14.0 0.00 0.00 0.00 25 1014.5
20260506234004 55 267 11.0 15.0 0.00 0.00 0.00 25 1014.6
20260506233503 55 270 12.0 18.0 0.00 0.00 0.00 25 1014.8
20260506233005 54 267 11.0 18.0 0.00 0.00 0.00 25 1014.8
20260506232504 55 268 9.0 15.0 0.00 0.00 0.00 27 1014.8
20260506232004 56 280 12.0 20.0 0.00 0.00 0.00 25 1014.9
20260506231503 55 276 15.0 20.0 0.00 0.00 0.00 25 1015.0
20260506231005 56 271 14.0 20.0 0.00 0.00 0.00 25 1015.0
20260506230503 56 277 12.0 23.0 0.00 0.00 0.00 24 1014.9
20260506230005 56 273 14.0 26.0 0.00 0.00 0.00 23 1015.0
20260506225503 56 262 14.0 26.0 0.00 0.00 0.00 24 1015.0
20260506225005 56 265 9.0 18.0 0.00 0.00 0.00 25 1015.0
20260506224504 56 268 12.0 18.0 0.00 0.00 0.00 27 1015.0
20260506224004 56 264 12.0 18.0 0.00 0.00 0.00 24 1015.1
20260506223503 57 263 9.0 18.0 0.00 0.00 0.00 27 1015.0
20260506223005 56 247 11.0 15.0 0.00 0.00 0.00 27 1015.1
20260506222503 56 241 9.0 15.0 0.00 0.00 0.00 25 1015.2
20260506221504 55 284 9.0 17.0 0.00 0.00 0.00 28 1015.3
20260506221004 54 273 12.0 19.0 0.00 0.00 0.00 27 1015.4
20260506220503 54 271 11.0 19.0 0.00 0.00 0.00 27 1015.5
20260506220005 56 270 9.0 14.0 0.00 0.00 0.00 29 1015.5
20260506215503 54 263 9.0 14.0 0.00 0.00 0.00 28 1015.6
20260506215006 53 288 11.0 20.0 0.00 0.00 0.00 27 1015.8
20260506214005 54 281 15.0 20.0 0.00 0.00 0.00 28 1015.8
20260506213504 55 277 9.0 20.0 0.00 0.00 0.00 25 1015.8
20260506213005 53 290 7.0 12.0 0.00 0.00 0.00 28 1015.9
20260506212503 53 292 12.0 23.0 0.00 0.00 0.00 28 1016.0
20260506212004 54 285 15.0 23.0 0.00 0.00 0.00 29 1016.1
20260506211503 56 291 12.0 19.0 0.00 0.00 0.00 27 1016.2
20260506211005 55 310 8.0 14.0 0.00 0.00 0.00 27 1016.2
20260506210503 55 281 7.0 13.0 0.00 0.00 0.00 29 1016.3
20260506210005 52 264 8.0 12.0 0.00 0.00 0.00 33 1016.3
20260506205503 53 276 11.0 13.0 0.00 0.00 0.00 30 1016.6
20260506205005 52 285 12.0 18.0 0.00 0.00 0.00 30 1016.7
20260506204503 53 293 12.0 20.0 0.00 0.00 0.00 28 1016.7
20260506203503 55 284 14.0 21.0 0.00 0.00 0.00 29 1016.8
20260506203005 53 269 12.0 21.0 0.00 0.00 0.00 29 1016.9
20260506201503 54 288 7.0 19.0 0.00 0.00 0.00 28 1016.9
20260506200504 52 293 11.0 19.0 0.00 0.00 0.00 32 1017.2
20260506200005 52 280 11.0 20.0 0.00 0.00 0.00 29 1017.2
20260506195503 52 272 11.0 20.0 0.00 0.00 0.00 29 1017.3
20260506195004 51 282 14.0 21.0 0.00 0.00 0.00 30 1017.3
20260506194503 54 292 14.0 21.0 0.00 0.00 0.00 27 1017.5
20260506194005 54 286 12.0 15.0 0.00 0.00 0.00 30 1017.5
20260506192503 53 280 14.0 21.0 0.00 0.00 0.00 29 1017.7
20260506192005 52 278 11.0 21.0 0.00 0.00 0.00 29 1017.7
20260506191503 52 282 9.0 18.0 0.00 0.00 0.00 30 1017.7
20260506191005 53 293 12.0 24.0 0.00 0.00 0.00 29 1017.9
20260506190503 52 290 12.0 24.0 0.00 0.00 0.00 30 1017.9
20260506190005 50 284 9.0 15.0 0.00 0.00 0.00 32 1018.0
20260506184004 50 266 12.0 18.0 0.00 0.00 0.00 31 1018.3
20260506183503 51 268 12.0 17.0 0.00 0.00 0.00 30 1018.3
20260506183005 51 275 14.0 20.0 0.00 0.00 0.00 31 1018.4
20260506182503 51 276 11.0 20.0 0.00 0.00 0.00 32 1018.5
20260506182004 50 277 9.0 13.0 0.00 0.00 0.00 32 1018.5
20260506181004 49 288 11.0 20.0 0.00 0.00 0.00 31 1018.6
20260506180503 50 305 11.0 19.0 0.00 0.00 0.00 32 1018.6
20260506180006 51 292 12.0 19.0 0.00 0.00 0.00 31 1018.7
20260506175504 52 282 11.0 18.0 0.00 0.00 0.00 31 1018.7
20260506175005 50 283 11.0 18.0 0.00 0.00 0.00 31 1018.7
20260506174504 50 291 12.0 18.0 0.00 0.00 0.00 30 1018.8
20260506173504 49 300 12.0 21.0 0.00 0.00 0.00 35 1018.9
20260506173005 48 293 9.0 21.0 0.00 0.00 0.00 33 1019.0
20260506172503 49 286 9.0 18.0 0.00 0.00 0.00 32 1018.9
20260506172005 48 282 14.0 20.0 0.00 0.00 0.00 35 1019.1
20260506171503 48 272 11.0 20.0 0.00 0.00 0.00 33 1019.1
20260506171004 50 275 9.0 15.0 0.00 0.00 0.00 35 1019.0
20260506170503 50 288 9.0 15.0 0.00 0.00 0.00 32 1019.1
20260506170005 49 290 9.0 13.0 0.00 0.00 0.00 32 1019.2
20260506165503 49 307 9.0 18.0 0.00 0.00 0.00 35 1019.2
20260506164004 48 284 11.0 17.0 0.00 0.00 0.00 34 1019.4
20260506163004 49 289 12.0 18.0 0.00 0.00 0.00 32 1019.4
20260506162503 49 278 11.0 19.0 0.00 0.00 0.00 33 1019.5
20260506162005 48 290 9.0 19.0 0.00 0.00 0.00 32 1019.5
20260506161504 50 316 11.0 19.0 0.00 0.00 0.00 35 1019.4
20260506160005 46 293 15.0 23.0 0.00 0.00 0.00 31 1019.4
20260506155005 48 309 12.0 19.0 0.00 0.00 0.00 35 1019.4
20260506154005 47 281 14.0 21.0 0.00 0.00 0.00 34 1019.5
20260506153503 47 292 11.0 18.0 0.00 0.00 0.00 37 1019.4
20260506153005 47 307 11.0 20.0 0.00 0.00 0.00 37 1019.5
20260506152503 47 297 14.0 20.0 0.00 0.00 0.00 35 1019.5
20260506152005 47 300 12.0 19.0 0.00 0.00 0.00 34 1019.4
20260506151503 46 306 11.0 18.0 0.00 0.00 0.00 35 1019.5
20260506150503 46 306 11.0 15.0 0.00 0.00 0.00 37 1019.4
20260506150005 46 319 8.0 15.0 0.00 0.00 0.00 38 1019.4
20260506145503 46 307 8.0 14.0 0.00 0.00 0.00 35 1019.4
20260506144503 46 291 12.0 15.0 0.00 0.00 0.00 41 1019.5
20260506144005 45 290 12.0 18.0 0.00 0.00 0.00 41 1019.5
20260506143503 45 289 14.0 18.0 0.00 0.00 0.00 44 1019.5
20260506143005 44 285 14.0 19.0 0.00 0.00 0.00 44 1019.5
20260506142503 44 282 14.0 19.0 0.00 0.00 0.00 43 1019.6
20260506142005 43 292 14.0 19.0 0.00 0.00 0.00 44 1019.5
20260506141504 43 298 12.0 19.0 0.00 0.00 0.00 46 1019.6
20260506141005 43 299 12.0 17.0 0.00 0.00 0.00 45 1019.6
20260506140503 42 292 14.0 18.0 0.00 0.00 0.00 46 1019.6
20260506135503 42 295 11.0 14.0 0.00 0.00 0.00 48 1019.7
20260506135005 41 293 12.0 18.0 0.00 0.00 0.00 51 1019.7
20260506134504 40 288 12.0 18.0 0.00 0.00 0.00 49 1019.7
20260506134005 40 285 11.0 14.0 0.00 0.00 0.00 52 1019.7
20260506133503 39 290 9.0 13.0 0.00 0.00 0.00 53 1019.6
20260506133005 39 290 11.0 14.0 0.00 0.00 0.00 54 1019.6
20260506132503 38 294 11.0 14.0 0.00 0.00 0.00 55 1019.6
20260506131005 36 291 9.0 13.0 0.00 0.00 0.00 60 1019.7
20260506130503 36 295 9.0 14.0 0.00 0.00 0.00 61 1019.7
20260506130005 35 302 9.0 14.0 0.00 0.00 0.00 63 1019.6
20260506125503 34 304 8.0 14.0 0.00 0.00 0.00 64 1019.6
20260506125005 34 305 8.0 14.0 0.00 0.00 0.00 66 1019.5
20260506124503 33 299 8.0 14.0 0.00 0.00 0.00 67 1019.5
20260506124004 33 274 7.0 12.0 0.00 0.00 0.00 67 1019.4
20260506123503 33 262 5.0 12.0 0.00 0.00 0.00 66 1019.3
20260506123005 33 264 4.0 11.0 0.00 0.00 0.00 67 1019.2
20260506122503 32 263 4.0 8.0 0.00 0.00 0.00 70 1019.1
20260506122004 32 264 4.0 8.0 0.00 0.00 0.00 70 1019.1
20260506121503 31 274 5.0 8.0 0.00 0.00 0.00 71 1018.9
20260506121005 31 276 5.0 8.0 0.00 0.00 0.00 71 1018.9
20260506120503 31 283 4.0 7.0 0.00 0.00 0.00 72 1018.9
20260506120005 30 299 4.0 6.0 0.00 0.00 0.00 73 1018.9
20260506115504 30 304 3.0 5.0 0.00 0.00 0.00 74 1018.8
20260506115005 30 303 4.0 7.0 0.00 0.00 0.00 74 1018.8
20260506114503 30 290 4.0 7.0 0.00 0.00 0.00 73 1018.7
20260506114005 30 283 5.0 11.0 0.00 0.00 0.00 73 1018.7
20260506113504 30 282 5.0 11.0 0.00 0.00 0.00 73 1018.6
20260506113005 30 270 5.0 8.0 0.00 0.00 0.00 73 1018.6
20260506112503 31 262 7.0 8.0 0.00 0.00 0.00 73 1018.5
20260506112005 30 259 7.0 8.0 0.00 0.00 0.00 74 1018.4
20260506111503 31 253 5.0 8.0 0.00 0.00 0.00 73 1018.3
20260506110503 31 259 5.0 10.0 0.00 0.00 0.00 73 1018.3
20260506110005 31 267 7.0 10.0 0.00 0.00 0.00 73 1018.3
20260506105503 30 273 7.0 8.0 0.00 0.00 0.00 73 1018.1
20260506105004 31 270 7.0 8.0 0.00 0.00 0.00 72 1018.1
20260506104503 31 260 5.0 8.0 0.00 0.00 0.00 71 1018.2
20260506104004 31 259 5.0 7.0 0.00 0.00 0.00 71 1018.0
20260506103503 32 259 5.0 7.0 0.00 0.00 0.00 71 1017.9
20260506103005 32 252 5.0 7.0 0.00 0.00 0.00 71 1018.0
20260506102503 32 244 4.0 7.0 0.00 0.00 0.00 71 1018.0
20260506102005 32 240 4.0 7.0 0.00 0.00 0.00 71 1018.0
20260506101503 32 237 4.0 7.0 0.00 0.00 0.00 71 1018.1
20260506101004 32 235 4.0 8.0 0.00 0.00 0.00 73 1018.1
20260506100503 32 238 3.0 8.0 0.00 0.00 0.00 72 1018.1
20260506100004 32 258 1.0 5.0 0.00 0.00 0.00 74 1018.1
20260506095005 32 308 1.0 5.0 0.00 0.00 0.00 75 1017.9
20260506094503 32 310 3.0 5.0 0.00 0.00 0.00 74 1017.8
20260506093504 33 271 0.0 1.0 0.00 0.00 0.00 73 1017.6
20260506093005 33 262 1.0 4.0 0.00 0.00 0.00 72 1017.5
20260506092503 34 269 1.0 4.0 0.00 0.00 0.00 71 1017.6
20260506092005 34 275 3.0 4.0 0.00 0.00 0.00 69 1017.6
20260506091503 35 267 3.0 4.0 0.00 0.00 0.00 69 1017.7
20260506090503 35 262 1.0 4.0 0.00 0.00 0.00 70 1017.7
20260506085004 35 252 4.0 8.0 0.00 0.00 0.00 69 1017.6
20260506084503 35 252 4.0 8.0 0.00 0.00 0.00 67 1017.6
20260506084005 35 248 5.0 8.0 0.00 0.00 0.00 69 1017.4